This is the latest recevied weather packets stored in our database for station/object KE5VBO-1. If no packets are shown the sender has not sent any weather packets the latest 10 day(s).
| Time | Temp. | Humidity | Pressure | Rain* | Wind** | Luminosity | Snow |
|---|---|---|---|---|---|---|---|
| 1777726854 | 9.44° C | 1% | 1020.2 hPa | 0 mm | - | - | - |
| 1777725910 | 8.33° C | 1% | 1020 hPa | 0 mm | - | - | - |
| 1777725064 | 8.33° C | 1% | 1019.9 hPa | 0 mm | - | - | - |
| 1777724119 | 7.78° C | 1% | 1019.7 hPa | 0 mm | - | - | - |
| 1777723250 | 7.78° C | 1% | 1019.5 hPa | 0 mm | - | - | - |
| 1777722308 | 7.78° C | 1% | 1019.2 hPa | 0 mm | - | - | - |
| 1777721452 | 7.78° C | 1% | 1019.1 hPa | 0 mm | - | - | - |
| 1777720523 | 8.33° C | 1% | 1018.8 hPa | 0 mm | - | - | - |
| 1777719654 | 8.33° C | 1% | 1018.7 hPa | 0 mm | - | - | - |
| 1777718717 | 8.33° C | 1% | 1018.5 hPa | 0 mm | - | - | - |
| 1777717865 | 8.89° C | 1% | 1018.2 hPa | 0 mm | - | - | - |
| 1777716912 | 8.89° C | 1% | 1018.2 hPa | 0 mm | - | - | - |
| 1777716083 | 8.89° C | 1% | 1018.2 hPa | 0 mm | - | - | - |
| 1777715120 | 8.89° C | 1% | 1018.1 hPa | 0 mm | - | - | - |
| 1777714262 | 8.89° C | 1% | 1018.3 hPa | 0 mm | - | - | - |
| 1777713328 | 8.89° C | 1% | 1018.2 hPa | 0 mm | - | - | - |
| 1777712477 | 9.44° C | 1% | 1018.2 hPa | 0 mm | - | - | - |
| 1777711518 | 9.44° C | 1% | 1017.9 hPa | 0 mm | - | - | - |
| 1777710659 | 9.44° C | 1% | 1017.9 hPa | 0 mm | - | - | - |
| 1777709734 | 10° C | 1% | 1017.8 hPa | 0 mm | - | - | - |
| 1777708859 | 10° C | 1% | 1017.9 hPa | 0 mm | - | - | - |
| 1777707928 | 10° C | 1% | 1018.1 hPa | 0 mm | - | - | - |
| 1777707058 | 10° C | 1% | 1018.1 hPa | 0 mm | - | - | - |
| 1777706113 | 10.56° C | 1% | 1018.2 hPa | 0 mm | - | - | - |
| 1777705260 | 10.56° C | 1% | 1018.2 hPa | 0 mm | - | - | - |
* Rain latest hour (hover to see other rain measurements)
** Current wind speed in m/s (hover to see current wind gust speed)